星链-5659 (STARLINK-5659 )

导读

STARLINK-5659是美国太空探索技术公司SpaceX星链星座中的一颗卫星,于2023年1月26日发射入轨。星链星座旨在为全球提供覆盖广泛的低轨宽带互联网服务,该卫星承担着扩充星座网络容量、提升服务覆盖稳定性与通信质量的作用,依托低轨轨道特性,可降低信号传输延迟,服务全球各类远程互联需求。

基本信息
目录编号:
55351
目录名称:
STARLINK-5659
国际标识:
2023-013W
轨道中心:
EARTH
卫星名称:
星链-5659
卫星全名:
星链-5659 (STARLINK-5659 )
卫星状态:
在轨 (已飞行1236 天)
发射日期:
2023-01-26 UTC
国别 :
美国 (US)
星等 :
--
轨道信息
数据来源 国际轨道数据
星历时间: 2026-06-14T21:52:43+0800
12小时前
查看轨道信息
半长轴: 6861.182km
偏心率: 0.0000354
轨道倾角: 42.996°
近地点辐角 299.991°
升交点赤经 116.022°
平近点角 60.091°
近地点: 482.802km
远地点: 483.288km
周期: 94.267分钟
每日圈数: 15.275814
详细信息
固有亮度:
5
最大亮度:
2.5
卫星平台:
Starlink v1.5
覆盖范围:
全球
运营商:
太空探索技术公司
运营商所在国:
美国
制造商(研发单位):
太空探索技术公司
制造商所在国:
美国
使用方式:
暂无
卫星简介
星链(Starlink)计划是由太空探索技术公司(SpaceX)提出的一个巨型低轨卫星互联网星座项目,计划在2019年至2024年间在太空搭建由约1.2万颗卫星组成的“星链”网络,其中1584颗将部署在地球上空550千米处的近地轨道,并从2020年开始工作。该卫星仍在工作。
2D轨道图
3D轨道图
轨道高度分析图
轨道倾角分析图
轨道综合分析图
查看轨道综合分析图